Change the Weather History Date:

Sunday, April 7, 2013

  Actual Average (KSAF) Record (KSAF)
Temperature  
Mean Temperature 54 °F -  
Max Temperature 69 °F 0 °F 72 °F (2009)
Min Temperature 41 °F - 25 °F (1964)
Degree Days  
Heating Degree Days 10    
Growing Degree Days 4 (Base 50)    
Moisture  
Dew Point 17 °F    
Average Humidity 23    
Maximum Humidity 45    
Minimum Humidity 11    
Precipitation  
Precipitation 0.00 in - - ()
Sea Level Pressure  
Sea Level Pressure 29.68 in    
Wind  
Wind Speed 17 mph (WNW)    
Max Wind Speed 32 mph    
Max Gust Speed 43 mph    
Visibility 10 miles    
Events      
Averages and records for this station are not official NWS values.
T = Trace of Precipitation, MM = Missing Value Source: NWS Daily Summary

Daily Weather History Graph

Daily Weather History Graph

Search for Another Location

Airport or City:

Trip Planner

Search our weather history database for the weather conditions in past years. The results will help you decide how hot, cold, wet, or windy it might be!

Date:

Astronomy

Apr. 07, 2013 Rise Set
Actual Time 6:40 AM MDT 7:29 PM MDT
Civil Twilight 6:15 AM MDT 7:54 PM MDT
Nautical Twilight 5:44 AM MDT 8:25 PM MDT
Astronomical Twilight 5:13 AM MDT 8:56 PM MDT
Moon 4:54 AM MDT (4/7) 5:08 PM MDT (4/7)
Length of Visible Light 13h 39m
Length of Day
12h 48m
Waning Crescent, 8% of the Moon is Illuminated
Apr 7
Waning Crescent
Apr 10
New
Apr 18
First Quarter
Apr 25
Full
May 2
Last Quarter

Hourly Weather History & Observations

Time (MDT) Temp. Windchill Dew Point Humidity Pressure Visibility Wind Dir Wind Speed Gust Speed Precip Events Conditions
12:53 AM 48.0 °F - 14.0 °F 26% 29.75 in 10.0 mi WSW 6.9 mph - N/A   Clear
1:53 AM 48.9 °F - 15.1 °F 26% 29.72 in 10.0 mi West 16.1 mph - N/A   Clear
2:53 AM 50.0 °F - 15.1 °F 25% 29.70 in 10.0 mi West 19.6 mph - N/A   Clear
3:53 AM 48.9 °F - 16.0 °F 27% 29.69 in 10.0 mi West 20.7 mph - N/A   Clear
4:53 AM 45.0 °F 38.5 °F 19.0 °F 36% 29.71 in 10.0 mi WNW 13.8 mph - N/A   Clear
5:53 AM 44.1 °F 38.1 °F 21.0 °F 40% 29.71 in 10.0 mi WNW 11.5 mph - N/A   Clear
6:53 AM 41.0 °F 33.5 °F 21.0 °F 45% 29.74 in 10.0 mi NW 13.8 mph - N/A   Clear
7:53 AM 48.9 °F - 24.1 °F 38% 29.76 in 10.0 mi West 17.3 mph - N/A   Clear
8:53 AM 52.0 °F - 24.1 °F 34% 29.77 in 10.0 mi West 18.4 mph - N/A   Clear
9:53 AM 57.9 °F - 21.9 °F 25% 29.76 in 10.0 mi West 18.4 mph 27.6 mph N/A   Clear
10:53 AM 62.1 °F - 21.0 °F 21% 29.73 in 10.0 mi NW 20.7 mph 28.8 mph N/A   Clear
11:53 AM 64.0 °F - 21.0 °F 19% 29.72 in 10.0 mi West 26.5 mph 40.3 mph N/A   Clear
12:53 PM 64.9 °F - 19.0 °F 17% 29.68 in 10.0 mi West 28.8 mph 38.0 mph N/A   Clear
1:53 PM 66.0 °F - 18.0 °F 16% 29.65 in 10.0 mi West 27.6 mph 40.3 mph N/A   Clear
2:53 PM 68.0 °F - 16.0 °F 14% 29.63 in 10.0 mi West 28.8 mph 38.0 mph N/A   Clear
3:53 PM 68.0 °F - 12.0 °F 11% 29.61 in 10.0 mi WNW 28.8 mph 38.0 mph N/A   Clear
4:53 PM 66.0 °F - 12.0 °F 12% 29.62 in 10.0 mi West 32.2 mph 42.6 mph N/A   Clear
5:53 PM 64.9 °F - 12.0 °F 13% 29.63 in 10.0 mi WNW 23.0 mph 31.1 mph N/A   Clear
6:53 PM 62.1 °F - 10.9 °F 13% 29.66 in 10.0 mi WNW 21.9 mph 31.1 mph N/A   Clear
7:53 PM 57.9 °F - 12.0 °F 16% 29.65 in 10.0 mi West 19.6 mph - N/A   Clear
8:53 PM 55.0 °F - 12.0 °F 18% 29.67 in 10.0 mi West 15.0 mph - N/A   Clear
9:53 PM 53.1 °F - 12.0 °F 20% 29.65 in 10.0 mi NW 8.1 mph - N/A   Clear
10:53 PM 54.0 °F - 12.9 °F 20% 29.61 in 10.0 mi West 18.4 mph - N/A   Clear
11:53 PM 52.0 °F - 14.0 °F 22% 29.60 in 10.0 mi West 16.1 mph - N/A   Clear